www.pogodaiklimat.ru

Погода и климат >> Архив погоды >> Великобритания >> Шобдон


ПОГОДА в Шобдоне

  • Прогноз погоды в Шобдоне
  • Монитор погоды в Шобдоне

АРХИВ ПОГОДЫ в Шобдоне

Время (UTC), дата Ветер
(напр.,м/с)
 
Видим.   Явления Облачность Т
(С)
Тd
(С)
f
(%)
Тe
(С)
Тes
(С)
Комфортность P
(гПа)
Po
(гПа)
Тmin
(С)
Tmax
(С)
R
(мм)
R24
(мм)
S
(см)
10 16.07 С 2 27 км н/о +21.0 +13.0 60 +24 +24 комфорт 1019.4 1007.8
11 16.07 СВ 1 35 км н/о +22.2 +12.7 55 +25 +25 комфорт 1019.0 1007.4
12 16.07 СЗ 2 35 км н/о +20.7 +14.9 69 +24 +24 комфорт 1018.9 1007.3
13 16.07 Ю 2 40 км н/о +23.5 +11.2 46 +25 +25 комфорт 1018.5 1007.0
14 16.07 В 1 40 км н/о +23.1 +11.2 47 +25 +25 комфорт 1018.2 1006.7
15 16.07 З 1 30 км н/о +22.3 +13.9 59 +25 +25 комфорт 1018.1 1006.5
16 16.07 ЮЗ 2 15 км н/о +21.2 +14.1 64 +24 +24 комфорт 1017.9 1006.3
17 16.07 ЮЗ 3 27 км н/о +21.7 +14.3 63 +25 +25 комфорт 1017.7 1006.1
18 16.07 З 2 30 км н/о +22.9 +13.7 56 +26 +26 жарко 1017.3 1005.8 +24.3
19 16.07 СЗ 2 30 км н/о +20.6 +13.5 64 +24 +24 комфорт 1017.3 1005.6
20 16.07 С 1 30 км н/о +17.8 +13.9 78 +19 +19 1017.3 1005.6
21 16.07 СЗ 2 35 км н/о +17.3 +13.9 80 +18 +18 1017.6 1005.8
22 16.07 З 2 30 км н/о +16.8 +13.7 82 +17 +17 1017.7 1006.0
23 16.07 З 1 30 км н/о +14.6 +11.9 84 +15 +15 1017.8 1005.9
00 17.07 С 1 15 км н/о +12.5 +10.8 89 +12 +12 1017.8 1005.8
01 17.07 СЗ 2 27 км н/о +13.3 +12.5 95 +12 +12 1017.4 1005.5
02 17.07 СЗ 2 26 км н/о +13.7 +11.7 88 +13 +13 1016.9 1005.0
03 17.07 З 2 14 км н/о +12.1 +10.8 92 +11 +11 1016.5 1004.5
04 17.07 З 1 18 км н/о +12.2 +11.1 93 +12 +12 1016.1 1004.2
05 17.07 СЗ 1 13 км н/о +10.7 +9.8 94 +11 +11 1015.9 1003.9
06 17.07 З 1 20 км н/о +13.0 +12.4 96 +13 +13 1015.6 1003.7 +10.5
07 17.07 ЮЗ 1 25 км н/о +15.7 +13.0 84 +16 +16 1015.5 1003.7
08 17.07 З 2 28 км н/о +18.3 +13.4 73 +19 +19 1015.2 1003.5
09 17.07 ЮЗ 4 29 км н/о +18.7 +12.4 67 +19 +19 1014.9 1003.2
10 17.07 З 3 30 км н/о +20.1 +12.8 63 +22 +22 комфорт 1014.6 1003.0
11 17.07 З 4 35 км н/о +20.6 +12.4 59 +23 +23 комфорт 1014.4 1002.8
12 17.07 З 4 30 км н/о +21.8 +14.7 64 +25 +25 комфорт 1013.8 1002.3
13 17.07 ЮЗ 5 35 км н/о +20.8 +13.0 61 +23 +23 комфорт 1013.4 1001.8
14 17.07 З 6 30 км н/о +19.8 +12.7 64 +21 +21 комфорт 1013.3 1001.6
15 17.07 ЮЗ 5 14 км н/о +20.6 +13.2 63 +23 +23 комфорт 1012.4 1000.9
16 17.07 З 5 12 км н/о +17.7 +13.8 78 +17 +17 1012.8 1001.1
17 17.07 З 4 22 км н/о +18.8 +13.9 73 +20 +20 1011.9 1000.2
18 17.07 ЮЗ 4 23 км н/о +19.0 +12.7 67 +20 +20 1011.4 999.7 +22.2
19 17.07 ЮЗ 6 22 км н/о +18.1 +11.3 64 +18 +18 1011.1 999.5
20 17.07 ЮЗ 2 25 км н/о +17.4 +12.3 72 +18 +18 1011.1 999.4
21 17.07 ЮЗ 3 21 км н/о +16.9 +12.5 75 +17 +17 1011.1 999.4
22 17.07 ЮЗ 4 26 км н/о +16.5 +12.9 79 +16 +16 1010.6 998.9
23 17.07 ЮЗ 2 26 км н/о +16.3 +13.0 81 +17 +17 1010.1 998.4
00 18.07 З 2 6000 м н/о +15.6 +13.7 88 +15 +15 1009.9 998.1
01 18.07 ЮЗ 2 20 км н/о +15.4 +14.0 91 +15 +15 1009.3 997.6
02 18.07 ЮЗ 1 17 км н/о +14.8 +13.5 92 +16 +16 1008.9 997.1
03 18.07 СЗ 1 12 км н/о +14.8 +13.8 94 +15 +15 1008.5 996.7
04 18.07 З 1 14 км н/о +14.9 +14.2 96 +15 +15 1008.5 996.8
05 18.07 З 2 45 км н/о +15.0 +13.6 91 +15 +15 1008.4 996.7
06 18.07 Ю 2 50 км н/о +15.1 +12.9 87 +15 +15 1008.9 997.1 +14.7
07 18.07 СЗ 2 40 км н/о +15.0 +12.3 84 +15 +15 1009.4 997.6
08 18.07 З 2 40 км н/о +15.2 +12.1 82 +15 +15 1009.7 997.9
09 18.07 З 3 35 км н/о +17.2 +12.1 72 +17 +17 1010.0 998.3
10 18.07 СЗ 3 45 км н/о +18.3 +11.4 64 +19 +19 1009.9 998.3
11 18.07 З 5 50 км н/о +19.4 +10.1 55 +20 +20 1010.1 998.5
12 18.07 З 5 40 км н/о +18.5 +9.8 57 +19 +19 1010.4 998.8
13 18.07 З 4 45 км н/о +19.7 +10.1 54 +21 +21 комфорт 1010.4 998.8
14 18.07 З 5 45 км н/о +19.1 +10.7 58 +20 +20 1010.6 999.0
15 18.07 З 5 50 км н/о +19.8 +9.6 52 +21 +21 комфорт 1010.5 999.0
16 18.07 СЗ 4 50 км н/о +20.3 +10.6 54 +22 +22 комфорт 1010.6 999.1
17 18.07 З 5 50 км н/о +20.1 +10.1 53 +21 +21 комфорт 1010.6 999.1
18 18.07 З 5 45 км н/о +19.8 +10.2 54 +21 +21 комфорт 1010.8 999.2 +21.1
19 18.07 З 3 50 км н/о +18.6 +10.4 59 +19 +19 1011.0 999.4
20 18.07 З 2 40 км н/о +17.0 +10.7 66 +17 +17 1011.4 999.7
21 18.07 З 2 35 км н/о +15.5 +11.5 77 +15 +15 1011.9 1000.2
22 18.07 З 3 30 км н/о +14.5 +11.2 81 +14 +14 1012.4 1000.6
23 18.07 З 4 30 км н/о +13.8 +11.2 84 +12 +12 1012.4 1000.6
00 19.07 ЮЗ 2 27 км н/о +12.5 +10.6 88 +12 +12 1012.3 1000.4
01 19.07 Ю 1 18 км н/о +10.2 +9.1 93 +11 +11 1012.5 1000.5
02 19.07 В 1 15 км н/о +9.6 +8.9 95 +10 +10 1011.8 999.8
03 19.07 СЗ 1 20 км н/о +10.9 +10.4 97 +11 +11 1011.4 999.4
04 19.07 В 1 21 км н/о +11.7 +11.1 96 +11 +11 1010.9 999.0
05 19.07 В 2 9000 м н/о +12.0 +11.4 96 +11 +11 1010.6 998.7
06 19.07 СВ 1 6000 м н/о +12.4 +11.8 96 +12 +12 1010.3 998.4 +9.5 3
07 19.07 ЮВ 3 11 км н/о +14.1 +13.5 96 +13 +13 1009.7 997.9
08 19.07 ЮВ 3 9000 м н/о +14.2 +13.4 95 +13 +13 1009.2 997.4
09 19.07 ЮВ 3 8000 м н/о +14.5 +13.7 95 +13 +13 1008.3 996.6
10 19.07 Ю 3 45 км н/о +15.5 +14.4 93 +15 +15 1008.2 996.4
11 19.07 Ю 4 60 км н/о +18.6 +16.2 86 +19 +19 1007.1 995.5
12 19.07 Ю 4 30 км н/о +18.0 +16.1 89 +18 +18 1007.0 995.4 1
13 19.07 ЮЗ 4 35 км н/о +19.2 +17.6 90 +21 +21 комфорт 1006.8 995.2
14 19.07 ЮЗ 6 26 км н/о +20.4 +16.9 80 +23 +23 комфорт 1006.3 994.8
15 19.07 ЮЗ 7 7000 м н/о +19.1 +17.3 89 +20 +20 1006.4 994.8
17 19.07 ЮЗ 6 30 км н/о +18.4 +15.0 81 +18 +18 1006.2 994.6
18 19.07 ЮЗ 5 40 км н/о +18.2 +14.4 78 +18 +18 1006.3 994.7 +20.6 2
19 19.07 ЮЗ 5 35 км н/о +17.5 +14.3 81 +17 +17 1006.2 994.6
20 19.07 Ю 2 30 км н/о +17.4 +14.3 82 +18 +18 1005.9 994.3
21 19.07 Ю 2 25 км н/о +17.1 +14.4 84 +17 +17 1005.7 994.1
22 19.07 Ю 2 22 км н/о +16.8 +14.0 84 +17 +17 1005.4 993.8
23 19.07 Ю 2 21 км н/о +16.4 +14.3 87 +16 +16 1005.1 993.5
00 20.07 Ю 2 24 км н/о +15.9 +14.6 92 +16 +16 1004.6 992.9
01 20.07 Ю 1 9000 м н/о +15.8 +14.9 94 +16 +16 1004.2 992.5
02 20.07 ЮЗ 1 3600 м н/о +15.8 +15.0 95 +17 +17 1003.7 992.0
03 20.07 Ю 2 13 км н/о +15.9 +15.1 95 +16 +16 1003.0 991.3
04 20.07 В 2 12 км н/о +15.4 +14.7 96 +15 +15 1002.6 991.0
05 20.07 ЮЗ 2 17 км н/о +15.6 +14.8 95 +16 +16 1003.1 991.4
06 20.07 ЮЗ 3 30 км н/о +16.1 +14.3 89 +16 +16 1003.1 991.5 +15.2 3
07 20.07 ЮЗ 5 30 км н/о +15.9 +14.0 88 +15 +15 1003.5 991.9
08 20.07 ЮЗ 6 45 км н/о +17.2 +14.1 82 +16 +16 1004.1 992.5
09 20.07 ЮЗ 7 50 км н/о +17.4 +13.9 80 +16 +16 1004.6 993.0
10 20.07 ЮЗ 5 50 км н/о +17.9 +14.4 80 +17 +17 1005.2 993.6
11 20.07 З 6 70 км н/о +19.7 +15.3 76 +21 +21 комфорт 1005.9 994.3
12 20.07 З 6 70 км н/о +20.0 +14.5 71 +22 +22 комфорт 1006.9 995.3
13 20.07 З 6 65 км н/о +18.7 +14.0 74 +19 +19 1007.8 996.2
14 20.07 З 6 60 км н/о +18.8 +13.8 73 +19 +19 1008.5 996.9
15 20.07 З 5 65 км н/о +19.2 +15.4 79 +20 +20 1009.5 997.9
16 20.07 З 5 60 км н/о +18.7 +13.5 72 +19 +19 1010.4 998.8
17 20.07 СЗ 2 40 км н/о +17.9 +13.1 73 +18 +18 1011.3 999.6
18 20.07 З 4 45 км н/о +18.7 +12.0 65 +19 +19 1012.0 1000.4 +20.4
19 20.07 З 3 50 км н/о +17.0 +11.4 70 +17 +17 1013.0 1001.2
20 20.07 СЗ 1 40 км н/о +15.6 +11.9 79 +16 +16 1013.9 1002.1
21 20.07 З 2 45 км н/о +15.7 +11.4 76 +16 +16 1014.8 1003.0
22 20.07 З 2 40 км н/о +15.3 +11.5 78 +15 +15 1015.4 1003.6
23 20.07 З 2 35 км н/о +14.0 +10.6 80 +13 +13 1016.0 1004.1
00 21.07 З 2 25 км н/о +13.2 +10.6 84 +12 +12 1016.5 1004.6
01 21.07 З 2 19 км н/о +11.2 +10.3 94 +10 +10 1017.2 1005.2
02 21.07 З 2 23 км н/о +10.8 +9.9 94 +10 +10 1017.1 1005.1
03 21.07 З 2 20 км н/о +10.7 +10.1 96 +10 +10 1017.4 1005.4
04 21.07 З 2 16 км н/о +10.2 +9.6 96 +9 +9 1017.6 1005.6
05 21.07 З 3 30 км н/о +11.8 +11.3 97 +10 +10 1018.0 1006.0
06 21.07 ЮЗ 2 30 км н/о +13.7 +12.9 95 +13 +13 1018.3 1006.4 +10.1
07 21.07 З 3 23 км н/о +16.2 +13.9 86 +16 +16 1018.8 1007.0
08 21.07 ЮЗ 3 35 км н/о +16.4 +13.8 85 +16 +16 1019.2 1007.4
09 21.07 ЮЗ 4 35 км н/о +18.0 +13.6 75 +18 +18 1019.4 1007.7
10 21.07 ЮЗ 4 40 км н/о +18.1 +13.2 73 +18 +18 1019.8 1008.0
11 21.07 ЮЗ 6 23 км н/о +19.1 +12.8 67 +20 +20 1019.7 1008.0
12 21.07 ЮЗ 5 35 км н/о +19.3 +13.2 68 +20 +20 1020.0 1008.3
13 21.07 ЮЗ 5 30 км н/о +20.5 +13.2 63 +23 +23 комфорт 1019.7 1008.0
14 21.07 ЮЗ 5 45 км н/о +21.3 +13.2 60 +24 +24 комфорт 1019.6 1007.9
15 21.07 ЮЗ 6 45 км н/о +21.4 +12.7 58 +24 +24 комфорт 1019.3 1007.7
16 21.07 ЮЗ 7 45 км н/о +22.2 +13.6 58 +25 +25 комфорт 1019.0 1007.4
17 21.07 ЮЗ 7 55 км н/о +21.4 +12.8 58 +24 +24 комфорт 1018.7 1007.1
18 21.07 ЮЗ 5 55 км н/о +20.4 +12.9 62 +22 +22 комфорт 1018.8 1007.1 +22.7
19 21.07 ЮЗ 4 50 км н/о +19.9 +13.6 67 +22 +22 комфорт 1018.7 1007.1
20 21.07 ЮЗ 5 50 км н/о +19.0 +13.8 72 +20 +20 1018.7 1007.0
21 21.07 ЮЗ 4 45 км н/о +18.6 +13.8 74 +19 +19 1019.1 1007.3
22 21.07 ЮЗ 5 35 км н/о +18.3 +14.3 77 +18 +18 1018.9 1007.2
23 21.07 ЮЗ 4 40 км н/о +18.2 +14.4 78 +18 +18 1018.9 1007.2
00 22.07 ЮЗ 5 30 км н/о +18.2 +14.9 81 +18 +18 1018.6 1006.9
01 22.07 ЮЗ 7 30 км н/о +18.1 +15.6 85 +18 +18 1018.5 1006.7
02 22.07 ЮЗ 8 35 км н/о +18.3 +15.9 86 +18 +18 1018.2 1006.5
03 22.07 ЮЗ 6 17 км н/о +18.3 +16.4 89 +18 +18 1018.4 1006.7
04 22.07 ЮЗ 6 27 км н/о +18.5 +16.6 89 +19 +19 1018.3 1006.6
05 22.07 ЮЗ 5 28 км н/о +18.7 +16.5 87 +19 +19 1018.5 1006.8
06 22.07 ЮЗ 7 29 км н/о +19.0 +16.8 87 +20 +20 1018.9 1007.2 +18.0
07 22.07 З 6 45 км н/о +19.7 +16.9 84 +22 +22 комфорт 1019.4 1007.7
08 22.07 З 7 50 км н/о +20.8 +17.1 79 +24 +24 комфорт 1019.9 1008.2
09 22.07 ЮЗ 7 6000 м н/о +22.3 +17.1 72 +27 +27 душно 1020.1 1008.5
10 22.07 З 8 11 км н/о +22.3 +16.7 71 +27 +27 душно 1020.7 1009.1
11 22.07 З 6 16 км н/о +22.4 +17.3 73 +27 +27 душно 1020.8 1009.2
12 22.07 З 6 35 км н/о +22.5 +17.1 72 +27 +27 душно 1021.1 1009.5
13 22.07 ЮЗ 6 2700 м н/о +23.0 +17.5 71 +28 +28 душно 1020.8 1009.3
14 22.07 З 6 22 км н/о +21.8 +17.2 75 +26 +26 душно 1021.1 1009.5
15 22.07 ЮЗ 5 6000 м н/о +22.5 +17.9 75 +28 +28 душно 1021.1 1009.5
16 22.07 ЮЗ 7 10 км н/о +22.7 +17.4 72 +28 +28 душно 1020.9 1009.3
17 22.07 ЮЗ 6 40 км н/о +22.2 +16.5 70 +26 +26 душно 1020.7 1009.1
18 22.07 З 6 30 км н/о +21.5 +16.1 71 +25 +25 комфорт 1020.8 1009.2 +23.6
20 22.07 З 1 30 км н/о +19.1 +15.7 81 +22 +22 комфорт 1020.8 1009.1
21 22.07 ЮЗ 1 23 км н/о +16.1 +14.2 88 +17 +17 1021.3 1009.5
22 22.07 СЗ 1 19 км н/о +15.2 +13.6 90 +16 +16 1021.4 1009.5
23 22.07 З 1 15 км н/о +13.4 +12.4 94 +13 +13 1021.3 1009.3
00 23.07 штиль 0 12 км н/о +12.6 +11.9 95 +12 +12 1021.2 1009.2
01 23.07 З 1 16 км н/о +11.7 +11.0 95 +12 +12 1021.1 1009.0
02 23.07 штиль 0 12 км н/о +12.5 +11.9 96 +12 +12 1021.0 1009.0
03 23.07 штиль 0 13 км н/о +12.0 +11.4 96 +11 +11 1020.8 1008.7
04 23.07 штиль 0 12 км н/о +10.7 +10.1 96 +10 +10 1020.3 1008.2
05 23.07 ЮЗ 1 12 км н/о +13.3 +12.8 97 +14 +14 1020.1 1008.1
06 23.07 ЮВ 1 16 км н/о +15.2 +14.8 97 +16 +16 1019.9 1008.0 +10.6
07 23.07 В 1 19 км н/о +18.3 +16.8 91 +20 +20 1019.5 1007.7
08 23.07 ЮВ 1 22 км н/о +19.4 +16.6 84 +22 +22 комфорт 1019.2 1007.5
09 23.07 ЮВ 3 30 км н/о +21.5 +17.2 77 +26 +26 душно 1018.5 1006.9
10 23.07 ЮВ 3 35 км н/о +22.8 +17.2 71 +28 +28 душно 1018.2 1006.6

 

Местоположение метеостанции Шобдон (Великобритания): широта 52.25 долгота -2.88 высота над уровнем моря 99 м.

В архиве по умолчанию представлена погода в Шобдоне за последнюю неделю. Архивные данные за месяц целиком и за предыдущие месяцы, начиная с января 2011 года, Вы можете получить, выбрав интересующий диапазон дат из раскрывающегося списка и нажав кнопку "Ввод!".


*Определитесь, кто Вы:
робот инопланетянин человек

Внимание! Время в таблицах - всемирное. Для получения местного времени необходимо прибавить поправку, которая равна 0 ч.

Смотрите также архив погоды в соседних городах и на ближайших метеорологических станциях:

Погода в Хирфорде (Великобритания) (20 км)
Погода в Сеннибридже (Великобритания) (54 км)
Погода в Першоре (Великобритания) (59 км)
Погода в Шобери (Великобритания) (63 км)
Погода на Озере Вирнви (Великобритания) (68 км)
Погода в Троскоеде (Великобритания) (74 км)
Погода в Филтоне (Великобритания) (84 км)
Погода в Колсхилле (Великобритания) (85 км)
Погода в Бала (Великобритания) (86 км)
Погода в Литл Ризсингтон (Великобритания) (92 км)

Пояснения к столбцам:

Ветер - указаны скорость ветра в м/с - средняя за 10 мин, порывы в срок и между сроками (в фигурных скобках) и направление, откуда дует ветер: С - северный, СВ - северо-восточный, В - восточный, ЮВ - юго-восточный, Ю - южный, ЮЗ - юго-западный, З - западный, СЗ - северо-западный.
Видимость - горизонтальная дальность видимости в метрах или километрах. При видимости от 1 до 10 км при отсутствии осадков обычно наблюдается дымка, при ухудшении видимости до 1 км и менее - туман. В сухую погоду видимость может ухудшаться дымом, пылью или мглою.
Явления - указаны атмосферные явления, наблюдавшиеся в срок или в последний час перед сроком; фигурными скобками обозначены явления, наблюдавшиеся между сроками (за 1-3 часа до срока); квадратными скобками обозначены град или гололедные отложения с указанием их диаметра в мм.
Облачность - указаны через наклонную черту общая и нижняя облачность в баллах и высота нижней границы облаков в метрах; квадратными скобками обозначены формы облаков: Ci - перистые, Cs - перисто-слоистые, Cc - перисто-кучевые, Ac - высококучевые, As - высокослоистые, Sc - слоисто-кучевые, Ns - слоисто-дождевые, Cu - кучевые, Cb - кучево-дождевые. Подробнее классификацию облаков см. в Атласе облаков (PDF).
T - Температура воздуха - температура, измеренная на высоте 2 м над землей.
Td - Температура точки росы - температура, при понижении до которой содержащийся в воздухе водяной пар достигнет насыщения.
f - Относительная влажность воздуха - влажноcть воздуха, измеренная на высоте 2 м над землей.
Te - Эффективная температура - температура, которую ощущает одетый по сезону человек в тени. Характеристика душности погоды. При расчете учитывается влияние влажности воздуха и скорости ветра на теплоощущения человека.
Tes - Эффективная температура на солнце - температура, которую ощущает человек, с поправкой на солнечный нагрев. Характеристика знойности погоды. Зависит от высоты солнца над горизонтом, облачности и скорости ветра. Ночью, в пасмурную погоду, а также при ветре 12 м/с и более поправка равна нулю.
P - Атмосферное давление - приведенное к уровню моря атмосферное давление.
Po - Атмосферное давление - измеренное на уровне метеостанции атмосферное давление.
Tmin - Минимальная температура - минимум температуры воздуха на высоте 2 м над землей.
Tmax - Максимальная температура - максимум температуры воздуха на высоте 2 м над землей.
R - Количество осадков - Количество выпавших осадков за период времени, мм. При наведении курсора мыши на число - период времени, за который выпало указанное количество осадков.
R24 - Количество осадков - Количество выпавших осадков за 24 часа, мм.
S - Снежный покров - Высота снежного покрова, см. При наведении курсора мыши на число - состояние снежного покрова и степень покрытия местности в баллах.